Terminal Aerodrome Forecast
Issued by NWS

Home | Current Version | Previous Version | Text Only | Print | Product List | Glossary On
Versions: 1 2 3 4 5 6 7 8 9 10 11 12 13 14 15
000
FTUS42 KMLB 200700 AAA
TAFSUA
TAF AMD
KSUA 200718Z 2007/2106 25004KT P6SM -RA SCT040 OVC100
     FM201400 23008KT P6SM VCSH BKN030 OVC050
     FM201800 26010KT P6SM VCSH SCT030 OVC050
      TEMPO 2018/2021 3SM TSRA BKN025CB
     FM210000 25003KT P6SM SCT020 BKN040 BKN080=

USA.gov is the U.S. government's official web portal to all federal, state and local government web resources and services.